STARLINK-4061 (53247 NORAD) Tracking and Keplerian Element Data

This shows tracking and keplerian element data for the satellite.

Feedback or suggestion? Click here.




ElementValue
Catalog53247
NameSTARLINK-4061
Epoch Orbit1067
Epoch Day270.25001157
Epoch Year2022
RAAN92.9673
Inclination53.2181
Eccentricity0.0001376
Argument of Perigee70.9268
Mean Anonmoly134.7216
Mean Motion15.0885564
Decay Rate-0.00048659
L11 53247U 22086F 22270.25001157 -.00048659 00000+0 -30587-2 0 9991
L22 53247 53.2181 92.9673 0001376 70.9268 134.7216 15.08855640 10678

Live tracking and technical data element details for STARLINK-4061 (NORAD 53247). STARLINK-4061 can be tracked NOW for your location showing map with azimuth and elevation plus other details from your city location.

Track the satellite on the map from your city or location and see movement details for azimuth, elevation, latitude, longitude, range, height, and movement on the map or in text.







IsCatalogInMostPopularTable: catalog: 53247, numindb: 4
Update: records affected: 1



GetName: 53247 STARLINK-4061

Hit Count: updated at: Thu, 29 Sep 2022 10:36:02 GMT